Regional Weather Roundup
Issued by NWS

Home | Current Version | Previous Version | Graphics & Text | Print | Product List | Glossary On
Versions: 1 2 3 4 5 6 7 8 9 10 11 12 13 14 15 16 17 18 19 20 21 22 23 24 25 26 27 28 29 30 31 32 33 34 35 36 37 38 39 40 41 42 43 44 45 46 47 48 49 50
000
ASUS45 KBOU 241507
RWRCO

WEATHER ROUNDUP FOR COLORADO
NATIONAL WEATHER SERVICE DENVER/BOULDER CO
900 AM MDT FRI MAR 24 2017

NOTE: "FAIR" INDICATES FEW OR NO CLOUDS BELOW 12000 FEET WITH NO
SIGNIFICANT WEATHER AND/OR OBSTRUCTIONS TO VISIBILITY.

COZ001>005-013-030-031-241600-
...NORTHWEST COLORADO...

CITY           SKY/WX    TMP DP  RH WIND       PRES   REMARKS
CRAIG          FAIR      40  30  67 N17       30.15R
HAYDEN         FAIR      37  27  65 W6        30.15R
MEEKER         CLOUDY    39  30  70 NE13      30.16S
MOUNT WERNER   NOT AVBL
STEAMBOAT SPGS FAIR      36  28  75 CALM      30.13R
WALDEN         NOT AVBL
$$

COZ006>008-011-241600-
...WEST CENTRAL VALLEYS...

CITY           SKY/WX    TMP DP  RH WIND       PRES   REMARKS
GRAND JUNCTION FAIR      47  33  58 NW8       30.14R
MONTROSE       PTSUNNY   42  32  67 N5        30.15R
EAGLE          PTSUNNY   41  27  56 N14G25    30.14R
RIFLE          FAIR      47  30  51 NW8       30.13R
DELTA          FAIR      49  31  48 W12G20    30.11R
NUCLA          FAIR      45  32  61 NW12      30.16R
$$

COZ017>023-064>068-241600-
...SOUTHWEST COLORADO...

CITY           SKY/WX    TMP DP  RH WIND       PRES   REMARKS
DURANGO        FAIR      41  29  62 W7        29.98R
CORTEZ         FAIR      43  32  65 NW15G21   30.08R
PAGOSA SPRINGS FAIR      33  33 100 S6        29.99R WCI  28
TELLURIDE      FLURRIES  31  26  80 NW6       30.12  WCI  25
WOLF CREEK PAS LGT SNOW  21  18  86 NW14G26   30.06R WCI   8
$$

COZ009-010-012-014-032>034-037-058>063-241600-
...CENTRAL COLORADO...

CITY           SKY/WX    TMP DP  RH WIND       PRES   REMARKS
ASPEN          LGT SNOW  33  28  81 NW9G17    30.11R WCI  25
BUENA VISTA    FAIR      40  20  43 NW24G32   29.99R
COPPER MTN     CLOUDY    25  19  80 MISG      30.10R
BERTHOUD PASS  CLOUDY    14   5  67 NW12G23   30.10R WCI   0
COTTONWOOD PAS FAIR      36  21  55 CALM      30.03R
GUNNISON       FAIR      36  28  73 SW9       30.05R
KREMMLING      FAIR      43  30  61 N10G23    30.13R
LEADVILLE      CLOUDY    26  18  71 N16G22    30.07R WCI  14
MONARCH PASS   FOG       21  19  93 W12       30.15R VSB 1   WCI   9
SALIDA         FAIR      41  32  72 CALM      30.06R
SUNLIGHT       CLOUDY   N/A N/A N/A MISG      30.19R HAZE
WILKERSON PASS   N/A     23  21  93 NE13G38   30.03R WCI  11
$$

COZ069>075-241600-
...SAN LUIS VALLEY/SANGRE DE CRISTO MOUNTAINS...

CITY           SKY/WX    TMP DP  RH WIND       PRES   REMARKS
ALAMOSA        FAIR      39  30  70 NW24G36   29.89R
LA VETA PASS   NOT AVBL
SAGUACHE       PTSUNNY   37  30  75 N14       29.97R
$$

COZ035-036-038>040-241600-
...NORTHERN COLORADO FRONT RANGE...

CITY           SKY/WX    TMP DP  RH WIND       PRES   REMARKS
DENVER INTL AP CLOUDY    38  36  92 N25G36    30.04R
DMNS CITY PARK   N/A     42  31  66 NW10G25   30.07R
AURORA         CLOUDY    36  34  92 N28G35    30.05R
FRONT RANGE AP FLURRIES  37  36  93 NW26G37   30.04R
ERIE MUNI ARPT FAIR      43  33  68 N17G25    30.07S
BOULDER MUN AP PTSUNNY   43  32  65 NW15      30.07S
CENTENNIAL     CLOUDY    36  32  85 N22G33    30.05R
BROOMFIELD     PTSUNNY   41  32  70 NW23G29   30.00F
FORT COLLINS   PTSUNNY   44  31  60 N29G35    30.09R
LONGMONT       FAIR      46  33  58 N16       30.09S
$$

COZ041-046-047-076>085-087-088-241600-
...PIKES PEAK/PALMER DIVIDE AND SOUTHERN FOOTHILLS...

CITY           SKY/WX    TMP DP  RH WIND       PRES   REMARKS
COLO. SPRINGS  LGT SNOW  35  34  96 N31G46    29.92R WCI  22
A. F. ACADEMY  LGT SNOW  33  33  99 N36G51    29.94R VSB 1   WCI  18
SCHRIEVER AFB  LGT SNOW  34  32  93 N33G47    29.90  WCI  19
ELLICOTT       NOT AVBL
FALCON         CLOUDY    32  31  96 N38G51    29.93R WCI  16
FORT CARSON    LGT RAIN  37  32  81 N38G64    29.89R
LIMON          FOG       32  32 100 N33G46    29.89R VSB 1/2 WCI  17
MONUMENT HILL  CLOUDY    30  30 100 N30G40    30.02R WCI  15
TRINIDAD       LGT SNOW  34  32  92 N31G45    29.84R FOG     WCI  20
$$

COZ042>045-048>051-090-091-241600-
...NORTHEAST COLORADO...

CITY           SKY/WX    TMP DP  RH WIND       PRES   REMARKS
GREELEY ARPT   FAIR      42  34  73 NW28G37   30.05R
AKRON          FLURRIES  38  35  89 N32G44    29.94R
BURLINGTON     LGT RAIN  40  38  93 N37G46    29.81R FOG
WRAY           CLOUDY    41  41 100 N32G47    29.85R
STERLING       CLOUDY    41  37  87 N22G35    29.97R
HOLYOKE        LGT RAIN  43  39  87 N30G40    29.92R
FORT MORGAN    CLOUDY    39  35  83 N24G37    30.00R
$$

COZ086-089-092>099-241600-
...SOUTHEAST COLORADO...

CITY           SKY/WX    TMP DP  RH WIND       PRES   REMARKS
PUEBLO         LGT RAIN  42  34  73 N32G53    29.88R
LA JUNTA       FLURRIES  38  35  89 N36G48    29.83R
LAMAR          FAIR      51  35  54 NE20G25   29.70R
SPRINGFIELD      N/A     41  34  76 N30G39    29.63R
$$



USA.gov is the U.S. government's official web portal to all federal, state and local government web resources and services.